Regional Weather Roundup
Issued by NWS

Home | Current Version | Previous Version | Graphics & Text | Print | Product List | Glossary On
Versions: 1 2 3 4 5 6 7 8 9 10 11 12 13 14 15 16 17 18 19 20 21 22 23 24 25 26 27 28 29 30 31 32 33 34 35 36 37 38 39 40 41 42 43 44 45 46 47 48 49 50
099
ASUS43 KIND 242059
RWRIN

WEATHER ROUNDUP FOR INDIANA
NATIONAL WEATHER SERVICE INDIANAPOLIS IN
400 PM EST FRI NOV 24 2017

NOTE: "FAIR" INDICATES FEW OR NO CLOUDS BELOW 12,000 FEET WITH NO
SIGNIFICANT WEATHER AND/OR OBSTRUCTIONS TO VISIBILITY.

* - STATION DOES NOT REPORT WEATHER SUCH AS PRECIPITATION OR FOG.

+ - STATION NOT QUALITY CONTROLLED BY THE NATIONAL WEATHER SERVICE.
    USE DATA WITH CAUTION...ESPECIALLY DEWPOINT AND RELATIVE
    HUMIDITY OBSERVATIONS.

INZ001>003-010>013-019-020-242200-
NORTHWEST INDIANA

CITY           SKY/WX    TMP DP  RH WIND       PRES   REMARKS
GARY /AIRPORT/ SUNNY     63  34  34 S14G32    29.54F
KNOX *+        SUNNY     57  36  44 S20G25    29.60F
MICHIGAN CITY+ SUNNY     55  36  47 S12G26    29.56F
MONTICELLO +   SUNNY     58  33  39 S16       29.64F
RENSSELAER +   SUNNY     59  27  29 S17G23    29.61F

$$

LMZ046-743>745-242200-
SOUTHERN LAKE MICHIGAN

STATION/POSITION TIME  TEMP    WIND        PRES    WAVE
                       AIR SEA DIR/SP/G            HT
                 (UTC) (F)     (DEG/KT/KT) (MB)    (FT)
BURNS HARBOR     2040   59     180/ 16/ 25 1001.0F
MICHIGAN CITY    2030   58     160/ 17/ 23   N/A

$$

INZ004-005-014>016-021>024-242200-
NORTH CENTRAL INDIANA

CITY           SKY/WX    TMP DP  RH WIND       PRES   REMARKS
ELKHART        SUNNY     55  34  44 S15       29.61F
GOSHEN         SUNNY     56  34  43 S16       29.63F
PERU/GRISSOM   SUNNY     56  36  47 S18       29.66F
SOUTH BEND     SUNNY     56  36  47 S15       29.60F
WARSAW +       SUNNY     55  34  44 S9G21     29.64F

$$

INZ006>009-017-018-025>027-242200-
NORTHEAST INDIANA

CITY           SKY/WX    TMP DP  RH WIND       PRES   REMARKS
AUBURN +       SUNNY     55  32  41 S14G21    29.67F
FORT WAYNE     MOSUNNY   55  35  47 S15       29.68F
KENDALLVILLE + SUNNY     54  34  47 S21       29.64F

$$

INZ028-029-035-036-043>045-051>053-242200-
WEST CENTRAL INDIANA

CITY           SKY/WX    TMP DP  RH WIND       PRES   REMARKS
CRAWFORDSVL +  SUNNY     54  35  49 S16G23    29.70F
GREENCASTLE +  SUNNY     55  32  41 S12       29.72F
LAFAYETTE      SUNNY     56  35  45 S15G23    29.66F
TERRE HAUTE    SUNNY     56  33  42 S16G26    29.73F

$$

INZ030>032-037>040-046>048-054>057-064-065-242200-
CENTRAL INDIANA

CITY           SKY/WX    TMP DP  RH WIND       PRES   REMARKS
ANDERSON       SUNNY     55  32  41 S13       29.73F
COLUMBUS       MOSUNNY   55  23  28 S16G25    29.79F
INDIANAPOLIS   MOSUNNY   59  32  36 S20G25    29.74F
-EAGLE CREEK   SUNNY     59  31  34 S10G23    29.71F
KOKOMO +       SUNNY     56  35  45 S20       29.69F
MT COMFORT *+  SUNNY     57  37  47 SW16G22   29.73F
SHELBYVILLE    SUNNY     57  30  35 S17       29.75F

$$

INZ033-034-041-042-049-050-058-059-242200-
EAST CENTRAL INDIANA

CITY           SKY/WX    TMP DP  RH WIND       PRES   REMARKS
MUNCIE         SUNNY     56  30  37 S14G23    29.72F
RICHMOND +     SUNNY     52  32  46 S16       29.78F

$$

INZ060-061-067>069-081>083-085>088-242200-
SOUTHWEST INDIANA

CITY           SKY/WX    TMP DP  RH WIND       PRES   REMARKS
EVANSVILLE     MOSUNNY   60  33  36 SW17      29.80F
HUNTINGBURG +  MOSUNNY   58  34  40 S13       29.81F

$$

INZ062-063-066-070>080-084-089>092-242200-
SOUTH CENTRAL AND SOUTHEAST INDIANA

CITY           SKY/WX    TMP DP  RH WIND       PRES   REMARKS
BLOOMINGTON    SUNNY     58  30  34 SW15      29.76F
MADISON *+     SUNNY     55  25  30 S12       29.84F
SEYMOUR +      SUNNY     57  32  38 SW13      29.80F

$$





USA.gov is the U.S. government's official web portal to all federal, state and local government web resources and services.